[[{"header":{"parameterUnit":"m.s-1","parameterCategory":2,"la1":30.2991,"la2":30.254,"lo1":-89.0895,"lo2":-89.0444,"dy":0.0017,"dx":0.0017,"nx":28,"ny":28,"refTime":"2024-05-03T09:00:00:Z","depth":"0","parameterNumber":2,"parameterNumberName":"U-component_of_CURRENTS"},"data":[0,0,0,0,0,0,0,0,0,0,0,0,0,0,0,0,0,0,0,0,0,0,0,0,0,0,0,0,0,0,0,0,0,0,0,0,0,0,0,0,0,0,0,0,0,0,0,0,0,0,0,0,0,0,0,0,0,0,0.1944,0.1944,0,0.1866,0.1864,0.1863,0.1819,0.1819,0.1819,0.182,0.1766,0.1765,0.1763,0,0,0,0,0,0,0,0,0,0,0,0,0,0.201,0.2009,0.1944,0.1944,0.1943,0.1866,0.1864,0.1863,0.1819,0.1819,0.1819,0.182,0.1767,0.1765,0.1763,0,0,0,0,0,0,0,0,0,0,0,0,0,0.1957,0.2008,0.1944,0.1915,0.1912,0.1866,0.1864,0.1862,0.1819,0.1819,0.1819,0.182,0.1768,0.1765,0.1763,0.1739,0,0,0.1755,0.1754,0,0,0,0,0,0,0,0,0.196,0.1954,0.192,0.1917,0.1914,0.1857,0.1868,0.1824,0.1819,0.1849,0.182,0.182,0.1802,0.1796,0.1774,0.1736,0.1734,0.1755,0.1753,0.1752,0.1751,0,0,0,0,0,0,0,0.1964,0.1957,0.1908,0.192,0.1916,0.1891,0.1883,0.1859,0.1821,0.1847,0.1844,0.1843,0.18,0.1776,0.1772,0.1733,0.1755,0.1753,0.1751,0.175,0.1711,0.1711,0,0,0,0,0,0,0.1985,0.196,0.1911,0.1906,0.1944,0.189,0.1881,0.1871,0.182,0.1814,0.1843,0.1841,0.178,0.1775,0.177,0.1769,0.1752,0.175,0.1748,0.171,0.1711,0.1711,0,0,0,0,0,0,0.1986,0.1981,0.1914,0.1936,0.1927,0.1889,0.1877,0.1869,0.1852,0.1818,0.1812,0.1836,0.178,0.1774,0.1759,0.1765,0.1749,0.1746,0.171,0.171,0.1711,0.1747,0,0,0,0,0,0,0.1988,0.1981,0.1982,0.1937,0.1926,0.1895,0.1876,0.1867,0.1853,0.185,0.181,0.1805,0.178,0.1763,0.1757,0.1762,0.1744,0.1709,0.171,0.1711,0.1745,0.1749,0.1752,0,0,0,0,0,0.199,0.1982,0.1982,0.1977,0.1928,0.1896,0.1887,0.1859,0.1853,0.1845,0.1824,0.1806,0.1765,0.1762,0.1754,0.1758,0.1709,0.171,0.1711,0.1744,0.1748,0.1752,0,0,0,0,0,0,0.1998,0.1976,0.1975,0.1958,0.1939,0.189,0.188,0.1865,0.1838,0.1837,0.1807,0.18,0.1791,0.1771,0.1769,0.1751,0.1736,0.1735,0.1764,0.1767,0.1771,0.1775,0.1742,0,0,0,0,0,0.2006,0.1999,0.1975,0.1961,0.1956,0.1922,0.1907,0.1889,0.1861,0.1848,0.1822,0.18,0.1786,0.1776,0.1756,0.1741,0.1743,0.1742,0.1745,0.1748,0.1747,0.1764,0.1769,0.1715,0.1715,0.1715,0,0,0.2004,0.1992,0.1987,0.1964,0.1944,0.1929,0.1912,0.189,0.1877,0.1848,0.1822,0.181,0.1787,0.1773,0.1767,0.1758,0.1766,0.1749,0.1752,0.1749,0.1766,0.1771,0.1776,0.1715,0.1715,0.1715,0,0,0.1991,0.1989,0.1981,0.1969,0.1952,0.1934,0.1935,0.1897,0.1884,0.1861,0.1846,0.1841,0.1802,0.1793,0.1783,0.1794,0.1785,0.1789,0.1804,0.1821,0.1826,0.183,0.1847,0.1852,0.1788,0.1788,0.1788,0,0.199,0.1976,0.1972,0.1962,0.1957,0.1942,0.1931,0.1911,0.1873,0.1872,0.186,0.1831,0.1812,0.1811,0.1812,0.1801,0.181,0.179,0.1826,0.183,0.1834,0.185,0.1856,0.179,0.179,0.1789,0.1789,0,0.1973,0.1965,0.1958,0.1947,0.1944,0.1928,0.1917,0.191,0.1899,0.1883,0.1881,0.1857,0.1846,0.184,0.1824,0.1842,0.1841,0.1832,0.1817,0.1841,0.1857,0.1862,0.1793,0.1792,0.1791,0.1791,0,0,0.1943,0.1947,0.1942,0.1942,0.1937,0.1924,0.1926,0.192,0.1928,0.19,0.1909,0.1885,0.1886,0.1876,0.1865,0.1871,0.1905,0.1862,0.1862,0.1881,0.1948,0.2032,0.2045,0.1905,0.1906,0.1907,0.1952,0,0.1926,0.1917,0.1925,0.1912,0.1906,0.1916,0.1921,0.1921,0.1924,0.1929,0.1922,0.1923,0.1896,0.1902,0.1905,0.1908,0.1918,0.1893,0.1918,0.1919,0.1993,0.2054,0.2057,0.2105,0.1957,0.1957,0.1958,0,0.1892,0.1898,0.1892,0.1907,0.1907,0.1903,0.1928,0.193,0.1951,0.1962,0.1972,0.1968,0.1979,0.1953,0.197,0.1957,0.1954,0.1951,0.1953,0.2021,0.2013,0.2055,0.212,0.1962,0.1966,0.1965,0.1964,0,0.1861,0.1863,0.1864,0.1865,0.1885,0.1893,0.1907,0.1935,0.1953,0.1988,0.2014,0.2021,0.2037,0.2032,0.2035,0.2004,0.2063,0.2019,0.2089,0.2094,0.2097,0.2102,0.2015,0.2032,0.2032,0.2032,0.2032,0,0.1828,0.1815,0.1849,0.1844,0.1857,0.1879,0.1903,0.1926,0.1972,0.2014,0.2028,0.207,0.2059,0.209,0.2069,0.2123,0.2096,0.2112,0.2123,0.2112,0.2118,0.1981,0.191,0.2034,0.2033,0.2033,0.2033,0,0.177,0.1792,0.1789,0.1824,0.1837,0.1842,0.1897,0.1917,0.1975,0.2036,0.2054,0.2113,0.2183,0.2186,0.2203,0.2191,0.2152,0.2231,0.2229,0.2241,0.2162,0.2095,0.2025,0.1964,0.2311,0.2314,0.2316,0,0.1733,0.173,0.1769,0.1779,0.1789,0.1815,0.1841,0.1905,0.1942,0.2071,0.2097,0.2196,0.2276,0.2355,0.2386,0.2414,0.2244,0.2396,0.2339,0.2183,0.2113,0.2,0.1943,0.2345,0.2347,0.2349,0.235,0,0.1669,0.1687,0.1697,0.1726,0.1746,0.1783,0.1828,0.1862,0.1964,0.2037,0.216,0.2243,0.2402,0.2458,0.2526,0.2531,0.2282,0.2437,0.2261,0.2141,0.2023,0.1961,0.2279,0.2366,0.2365,0.2364,0.2363,0.2362,0.1617,0.1614,0.1641,0.1663,0.1693,0.1737,0.1756,0.1834,0.1908,0.202,0.2158,0.2258,0.2396,0.2526,0.2544,0.2495,0.2429,0.2363,0.2298,0.2197,0.2132,0.2509,0.2623,0.2623,0.2623,0.2623,0.2622,0,0.1558,0.1567,0.1581,0.1611,0.1631,0.1674,0.1736,0.175,0.1832,0.1957,0.2088,0.2202,0.2287,0.2351,0.2413,0.2326,0.2219,0.2192,0.1971,0.1924,0.2246,0.2239,0.2293,0.2293,0.2293,0.2293,0.2294,0.2294,0.1523,0.1519,0.1537,0.1548,0.1573,0.1574,0.1605,0.1637,0.1693,0.1765,0.1824,0.1942,0.2036,0.2096,0.2047,0.2023,0.1787,0.1774,0.1657,0.1807,0.1813,0.182,0.1791,0.1751,0.175,0.1294,0.129,0.1287]},{"header":{"parameterUnit":"m.s-1","parameterCategory":2,"la1":30.2991,"la2":30.254,"lo1":-89.0895,"lo2":-89.0444,"dy":0.0017,"dx":0.0017,"nx":28,"ny":28,"refTime":"2024-05-03T09:00:00:Z","depth":"0","parameterNumber":3,"parameterNumberName":"V-component_of_CURRENTS"},"data":[0,0,0,0,0,0,0,0,0,0,0,0,0,0,0,0,0,0,0,0,0,0,0,0,0,0,0,0,0,0,0,0,0,0,0,0,0,0,0,0,0,0,0,0,0,0,0,0,0,0,0,0,0,0,0,0,0,0,-0.0298,-0.0299,0,-0.0353,-0.0354,-0.0355,-0.0377,-0.0377,-0.0377,-0.0377,-0.0464,-0.0466,-0.0468,0,0,0,0,0,0,0,0,0,0,0,0,0,-0.0216,-0.0217,-0.0298,-0.0299,-0.0299,-0.0353,-0.0354,-0.0355,-0.0377,-0.0377,-0.0377,-0.0377,-0.0463,-0.0466,-0.0468,0,0,0,0,0,0,0,0,0,0,0,0,0,-0.0258,-0.0217,-0.0298,-0.0318,-0.032,-0.0353,-0.0354,-0.0355,-0.0377,-0.0377,-0.0377,-0.0377,-0.0462,-0.0465,-0.0469,-0.0492,0,0,-0.0479,-0.0481,0,0,0,0,0,0,0,0,-0.0256,-0.0261,-0.0314,-0.0317,-0.0319,-0.0359,-0.0357,-0.0402,-0.0378,-0.0355,-0.0377,-0.0377,-0.0432,-0.0438,-0.0447,-0.0496,-0.0499,-0.048,-0.0482,-0.0483,-0.0484,0,0,0,0,0,0,0,-0.0253,-0.0259,-0.0319,-0.0315,-0.0318,-0.0326,-0.0331,-0.0365,-0.0393,-0.0357,-0.0359,-0.0366,-0.0434,-0.0444,-0.0449,-0.0501,-0.048,-0.0483,-0.0485,-0.0486,-0.0584,-0.0584,0,0,0,0,0,0,-0.0248,-0.0256,-0.0317,-0.0321,-0.0288,-0.0327,-0.0334,-0.0346,-0.0392,-0.0399,-0.0366,-0.0367,-0.0438,-0.0445,-0.0452,-0.0492,-0.0483,-0.0487,-0.0489,-0.0583,-0.0584,-0.0585,0,0,0,0,0,0,-0.0246,-0.0253,-0.0315,-0.029,-0.0299,-0.0329,-0.0342,-0.0347,-0.0357,-0.0399,-0.0407,-0.0372,-0.0438,-0.0448,-0.0481,-0.0496,-0.0488,-0.0491,-0.0583,-0.0584,-0.0584,-0.0566,0,0,0,0,0,0,-0.0243,-0.0252,-0.0258,-0.029,-0.03,-0.0333,-0.0342,-0.0348,-0.0363,-0.0364,-0.0407,-0.0414,-0.0439,-0.0476,-0.0485,-0.05,-0.0494,-0.0582,-0.0583,-0.0584,-0.0566,-0.0566,-0.0566,0,0,0,0,0,-0.024,-0.0242,-0.0258,-0.0265,-0.0307,-0.0333,-0.0339,-0.0359,-0.0363,-0.0368,-0.0395,-0.0413,-0.0488,-0.0479,-0.0489,-0.0506,-0.0582,-0.0583,-0.0584,-0.0566,-0.0566,-0.0566,0,0,0,0,0,0,-0.0205,-0.0246,-0.0263,-0.0278,-0.0305,-0.0337,-0.0341,-0.0358,-0.0383,-0.038,-0.0419,-0.0429,-0.0465,-0.0487,-0.0476,-0.0537,-0.0539,-0.0542,-0.0521,-0.0522,-0.0522,-0.0503,-0.0497,0,0,0,0,0,-0.0202,-0.0217,-0.0257,-0.0268,-0.0279,-0.0311,-0.0323,-0.0337,-0.0364,-0.0374,-0.0406,-0.0441,-0.0478,-0.0499,-0.0531,-0.0565,-0.0574,-0.0582,-0.0582,-0.0582,-0.0575,-0.0604,-0.0605,-0.0588,-0.0588,-0.0588,0,0,-0.0192,-0.0216,-0.0225,-0.0262,-0.0282,-0.0297,-0.0317,-0.033,-0.0347,-0.0381,-0.0408,-0.0441,-0.0486,-0.0522,-0.0541,-0.0543,-0.0591,-0.0584,-0.0583,-0.0576,-0.0605,-0.0606,-0.0608,-0.0589,-0.0589,-0.0589,0,0,-0.0173,-0.0199,-0.0205,-0.0227,-0.0256,-0.0279,-0.0283,-0.0317,-0.0335,-0.0367,-0.0397,-0.0433,-0.0489,-0.0523,-0.0549,-0.0569,-0.0588,-0.0585,-0.0575,-0.0604,-0.0605,-0.0606,-0.0612,-0.0614,-0.0588,-0.0588,-0.0588,0,-0.0157,-0.0174,-0.0208,-0.0218,-0.0232,-0.027,-0.0275,-0.0303,-0.0345,-0.0361,-0.037,-0.0452,-0.0488,-0.054,-0.0548,-0.0569,-0.058,-0.0571,-0.0603,-0.0604,-0.0606,-0.0612,-0.0614,-0.0587,-0.0587,-0.0587,-0.0587,0,-0.0146,-0.0159,-0.0159,-0.019,-0.021,-0.0217,-0.0262,-0.0283,-0.0309,-0.034,-0.0389,-0.044,-0.0486,-0.0512,-0.0539,-0.0577,-0.0579,-0.0596,-0.0598,-0.0606,-0.0612,-0.0615,-0.0586,-0.0586,-0.0586,-0.0587,0,0,-0.0104,-0.0144,-0.0143,-0.0148,-0.0193,-0.0203,-0.0235,-0.0273,-0.0283,-0.0339,-0.036,-0.0437,-0.0461,-0.0492,-0.0535,-0.0567,-0.059,-0.0585,-0.0587,-0.0583,-0.0637,-0.0616,-0.0617,-0.0615,-0.0616,-0.0616,-0.0633,0,-0.0081,-0.0085,-0.0118,-0.0121,-0.0126,-0.0172,-0.0195,-0.0235,-0.0274,-0.0305,-0.0373,-0.0407,-0.0457,-0.0473,-0.0518,-0.0571,-0.0598,-0.0582,-0.0637,-0.0638,-0.0613,-0.0621,-0.0514,-0.0519,-0.0636,-0.0636,-0.0637,0,-0.0055,-0.0063,-0.0061,-0.0082,-0.0087,-0.0098,-0.013,-0.0156,-0.0218,-0.0246,-0.0303,-0.0352,-0.0418,-0.0448,-0.0546,-0.0534,-0.058,-0.062,-0.0622,-0.0609,-0.0623,-0.0533,-0.052,-0.0602,-0.0641,-0.0641,-0.064,0,0.0,-0.0017,-0.0012,-0.0021,-0.0057,-0.0062,-0.008,-0.0134,-0.0145,-0.0203,-0.0207,-0.0305,-0.0332,-0.0422,-0.0514,-0.0529,-0.0604,-0.0634,-0.0658,-0.0656,-0.0578,-0.0569,-0.0642,-0.069,-0.069,-0.069,-0.069,0,0.004,0.005,0.0018,0.0024,0.0041,-0.0007,0.0004,-0.0029,-0.007,-0.0062,-0.0164,-0.0169,-0.0326,-0.0394,-0.049,-0.0575,-0.0586,-0.0649,-0.0662,-0.0568,-0.0558,-0.0638,-0.0694,-0.069,-0.069,-0.069,-0.069,0,0.0102,0.0078,0.0093,0.0069,0.0069,0.0083,0.0072,0.0079,0.0034,0.0043,0.0032,-0.0067,-0.0147,-0.0294,-0.0425,-0.052,-0.0637,-0.0639,-0.0509,-0.0507,-0.0616,-0.0674,-0.0736,-0.0775,-0.0672,-0.0671,-0.0671,0,0.0134,0.0143,0.0143,0.0159,0.0153,0.0166,0.0179,0.014,0.0153,0.0121,0.0141,0.0057,0.0031,-0.0163,-0.0335,-0.0491,-0.0595,-0.0516,-0.0535,-0.0604,-0.0678,-0.0713,-0.0744,-0.0419,-0.0417,-0.0415,-0.0414,0,0.0195,0.0193,0.0203,0.0232,0.0255,0.0284,0.0302,0.0335,0.0307,0.0331,0.0354,0.0333,0.0154,0.0049,-0.0189,-0.0311,-0.0535,-0.0482,-0.0587,-0.0513,-0.052,-0.0567,-0.0424,-0.0397,-0.0398,-0.04,-0.04,-0.0401,0.0246,0.0266,0.0273,0.0306,0.0341,0.0396,0.0459,0.0497,0.0559,0.0636,0.0578,0.063,0.0416,0.0115,-0.0092,-0.0375,-0.0425,-0.0433,-0.0502,-0.0536,-0.0559,-0.0374,-0.0349,-0.035,-0.0352,-0.0353,-0.0354,0,0.0293,0.0305,0.0341,0.0386,0.0451,0.0448,0.0537,0.0622,0.0756,0.0839,0.0906,0.0885,0.0649,0.0317,-0.0078,-0.0322,-0.0433,-0.0463,-0.0485,-0.0526,-0.0372,-0.0347,-0.0279,-0.0279,-0.0279,-0.0279,-0.0279,-0.0279,0.0318,0.0351,0.0362,0.0467,0.0518,0.0639,0.0716,0.0847,0.0948,0.1117,0.1206,0.1227,0.0976,0.0272,-0.0248,-0.0394,-0.0578,-0.0572,-0.0739,-0.0626,-0.0629,-0.0631,-0.0623,-0.0613,-0.0613,-0.0809,-0.0811,-0.0813]}],[{"header":{"parameterUnit":"m.s-1","parameterCategory":2,"la1":30.2991,"la2":30.254,"lo1":-89.0895,"lo2":-89.0444,"dy":0.0017,"dx":0.0017,"nx":28,"ny":28,"refTime":"2024-05-03T09:00:00:Z","depth":"2","parameterNumber":2,"parameterNumberName":"U-component_of_CURRENTS"},"data":[0,0,0,0,0,0,0,0,0,0,0,0,0,0,0,0,0,0,0,0,0,0,0,0,0,0,0,0,0,0,0,0,0,0,0,0,0,0,0,0,0,0,0,0,0,0,0,0,0,0,0,0,0,0,0,0,0,0,0.2387,0.2388,0,0.2476,0.2477,0.2478,0.25,0.2499,0.2499,0.2498,0.2428,0.2426,0.2425,0,0,0,0,0,0,0,0,0,0,0,0,0,0.2122,0.2127,0.2387,0.2388,0.2389,0.2476,0.2477,0.2478,0.25,0.2499,0.2499,0.2498,0.2428,0.2426,0.2425,0,0,0,0,0,0,0,0,0,0,0,0,0,0.2226,0.2129,0.2386,0.2411,0.2414,0.2475,0.2477,0.2478,0.25,0.2499,0.2499,0.2498,0.2429,0.2427,0.2425,0.2426,0,0,0.2418,0.2417,0,0,0,0,0,0,0,0,0.222,0.2236,0.2406,0.2409,0.2413,0.2477,0.2358,0.2453,0.25,0.2467,0.2498,0.2498,0.243,0.2428,0.2448,0.2423,0.242,0.2418,0.2417,0.2416,0.2415,0,0,0,0,0,0,0,0.2213,0.2231,0.2421,0.2408,0.2412,0.2379,0.2394,0.2376,0.2448,0.2469,0.2472,0.2483,0.2431,0.245,0.2446,0.2419,0.2418,0.2416,0.2415,0.2414,0.2421,0.2422,0,0,0,0,0,0,0.2212,0.2226,0.2418,0.2424,0.2314,0.2385,0.2401,0.2456,0.2452,0.2452,0.2484,0.2484,0.2454,0.2448,0.2443,0.2449,0.2416,0.2414,0.2412,0.2419,0.2421,0.2422,0,0,0,0,0,0,0.2207,0.223,0.2415,0.2324,0.2345,0.2391,0.2452,0.2458,0.2483,0.2464,0.2461,0.2501,0.2453,0.2446,0.2434,0.2446,0.2413,0.2411,0.2417,0.242,0.2422,0.2457,0,0,0,0,0,0,0.22,0.2229,0.2262,0.2326,0.235,0.2478,0.2453,0.2461,0.2491,0.2492,0.2478,0.2471,0.2452,0.2437,0.2432,0.2442,0.2409,0.2416,0.2418,0.2421,0.2454,0.246,0.2466,0,0,0,0,0,0.219,0.2246,0.2264,0.2286,0.2399,0.248,0.2491,0.2516,0.2492,0.2529,0.2498,0.2472,0.2451,0.2436,0.243,0.244,0.2414,0.2418,0.2421,0.2452,0.2459,0.2465,0,0,0,0,0,0,0.2147,0.2256,0.2276,0.2363,0.2426,0.2485,0.2519,0.2521,0.253,0.2512,0.2481,0.2474,0.2474,0.2456,0.244,0.2454,0.2432,0.2434,0.2458,0.2465,0.247,0.2472,0.2407,0,0,0,0,0,0.2155,0.2235,0.2316,0.2388,0.2423,0.2467,0.2496,0.2511,0.2529,0.2534,0.2509,0.2488,0.2485,0.2472,0.2468,0.2463,0.246,0.2471,0.2476,0.2481,0.2481,0.2501,0.2508,0.2433,0.2433,0.2433,0,0,0.215,0.2228,0.2265,0.2384,0.2434,0.248,0.2485,0.2541,0.2556,0.2519,0.2516,0.2505,0.2491,0.2496,0.2494,0.2477,0.2503,0.2485,0.2489,0.2487,0.2505,0.2512,0.2518,0.2435,0.2435,0.2435,0,0,0.218,0.2264,0.2327,0.2384,0.2466,0.2497,0.2513,0.2563,0.2573,0.2573,0.2554,0.2555,0.2527,0.2536,0.2532,0.2567,0.2538,0.2561,0.2578,0.2598,0.2604,0.2609,0.2617,0.2623,0.2556,0.2556,0.2556,0,0.2151,0.2262,0.2352,0.2417,0.245,0.2502,0.2538,0.257,0.2593,0.2597,0.2573,0.2564,0.2552,0.2573,0.2585,0.2579,0.2575,0.2548,0.2604,0.2609,0.2613,0.2621,0.2626,0.2558,0.2558,0.2558,0.2558,0,0.2211,0.2295,0.2342,0.2441,0.249,0.254,0.259,0.2612,0.2603,0.2619,0.2632,0.2623,0.2615,0.2622,0.2604,0.2639,0.2621,0.2613,0.2582,0.2623,0.2628,0.2633,0.2561,0.2561,0.256,0.2559,0,0,0.2154,0.2338,0.2352,0.2396,0.2497,0.2538,0.2579,0.2634,0.2645,0.2658,0.2667,0.268,0.2672,0.2669,0.2662,0.2677,0.2708,0.265,0.265,0.265,0.2737,0.2717,0.2721,0.27,0.2701,0.2702,0.2728,0,0.2161,0.2277,0.236,0.2433,0.2491,0.2546,0.2581,0.2628,0.2653,0.2675,0.2696,0.2699,0.2694,0.2675,0.27,0.27,0.2723,0.2701,0.2704,0.2704,0.2675,0.2727,0.2445,0.2444,0.2733,0.2734,0.2734,0,0.2176,0.2263,0.234,0.2444,0.2468,0.2492,0.2547,0.2583,0.2651,0.2666,0.2694,0.2705,0.2734,0.2716,0.2755,0.2734,0.274,0.2747,0.2748,0.2719,0.2695,0.2451,0.2442,0.2743,0.2742,0.2741,0.2741,0,0.2101,0.2234,0.2291,0.2328,0.2451,0.246,0.2493,0.2567,0.2598,0.2651,0.2667,0.2714,0.2714,0.2742,0.2762,0.2747,0.2805,0.2787,0.2786,0.2784,0.2542,0.2517,0.2829,0.2829,0.2829,0.2829,0.2829,0,0.2074,0.2123,0.2255,0.2288,0.2322,0.2406,0.2427,0.2477,0.2543,0.259,0.2643,0.2683,0.2717,0.2757,0.2774,0.2799,0.2817,0.2801,0.2797,0.2548,0.2526,0.2778,0.2772,0.283,0.2829,0.2829,0.2829,0,0.2001,0.2094,0.2177,0.2288,0.2302,0.2321,0.2379,0.2406,0.2471,0.2528,0.2539,0.2646,0.2714,0.2763,0.2813,0.2803,0.2834,0.2842,0.255,0.2512,0.2794,0.279,0.2833,0.2832,0.2832,0.2832,0.2832,0,0.1988,0.2022,0.2151,0.2184,0.2228,0.2259,0.2282,0.2353,0.2394,0.2518,0.2548,0.2638,0.2674,0.275,0.274,0.2756,0.287,0.2549,0.2489,0.2806,0.2798,0.2794,0.279,0.2171,0.2166,0.2161,0.2157,0,0.1946,0.1992,0.2062,0.2135,0.2167,0.2196,0.2231,0.224,0.2341,0.2366,0.2459,0.2486,0.2579,0.2469,0.2502,0.2496,0.252,0.2463,0.2847,0.2239,0.2192,0.2181,0.2197,0.2117,0.2121,0.2124,0.2126,0.2128,0.1909,0.1953,0.2038,0.2065,0.2111,0.2106,0.2065,0.2113,0.211,0.2108,0.2265,0.2211,0.2251,0.215,0.2129,0.2146,0.233,0.2233,0.2242,0.2257,0.2201,0.2159,0.2066,0.2069,0.2072,0.2075,0.2078,0,0.1839,0.1894,0.1947,0.1993,0.1958,0.2023,0.2013,0.1937,0.1859,0.1902,0.1896,0.1725,0.1621,0.174,0.1654,0.1686,0.1619,0.1681,0.1545,0.1586,0.1623,0.1531,0.1219,0.1217,0.1215,0.1213,0,0,0.1816,0.1816,0.1824,0.1766,0.1808,0.1743,0.1693,0.1613,0.1584,0.1466,0.1412,0.1448,0.1581,0.1321,0.1327,0.1259,0.1409,0.1218,0.1895,0.1768,0.1802,0.1925,0.183,0,0,0,0,0]},{"header":{"parameterUnit":"m.s-1","parameterCategory":2,"la1":30.2991,"la2":30.254,"lo1":-89.0895,"lo2":-89.0444,"dy":0.0017,"dx":0.0017,"nx":28,"ny":28,"refTime":"2024-05-03T09:00:00:Z","depth":"2","parameterNumber":3,"parameterNumberName":"V-component_of_CURRENTS"},"data":[0,0,0,0,0,0,0,0,0,0,0,0,0,0,0,0,0,0,0,0,0,0,0,0,0,0,0,0,0,0,0,0,0,0,0,0,0,0,0,0,0,0,0,0,0,0,0,0,0,0,0,0,0,0,0,0,0,0,0.0108,0.0107,0,-0.0002,-0.0004,-0.0005,-0.0123,-0.0124,-0.0125,-0.0126,-0.0232,-0.0234,-0.0236,0,0,0,0,0,0,0,0,0,0,0,0,0,0.0184,0.0183,0.0108,0.0107,0.0106,-0.0002,-0.0004,-0.0006,-0.0123,-0.0124,-0.0125,-0.0127,-0.0232,-0.0234,-0.0236,0,0,0,0,0,0,0,0,0,0,0,0,0,0.0115,0.0183,0.0108,0.0039,0.0033,-0.0001,-0.0004,-0.0006,-0.0122,-0.0124,-0.0126,-0.0127,-0.0231,-0.0233,-0.0236,-0.0219,0,0,-0.0244,-0.0245,0,0,0,0,0,0,0,0,0.0119,0.0112,0.005,0.0044,0.0036,-0.0045,-0.0016,-0.0075,-0.0122,-0.007,-0.0126,-0.0128,-0.0164,-0.0172,-0.0198,-0.0224,-0.0228,-0.0244,-0.0246,-0.0247,-0.0248,0,0,0,0,0,0,0,0.0124,0.0116,0.0059,0.005,0.0041,0.0003,-0.0009,-0.0028,-0.0111,-0.0074,-0.0082,-0.0084,-0.0169,-0.0195,-0.0201,-0.023,-0.0244,-0.0247,-0.0248,-0.0249,-0.0296,-0.0296,0,0,0,0,0,0,0.0153,0.0121,0.0062,0.0056,0.0081,0.0004,-0.001,-0.0022,-0.0111,-0.0124,-0.0083,-0.0089,-0.019,-0.0198,-0.0205,-0.0243,-0.0247,-0.025,-0.0251,-0.0297,-0.0296,-0.0296,0,0,0,0,0,0,0.0155,0.0149,0.0067,0.0091,0.0078,0.0005,-0.0008,-0.0023,-0.008,-0.0116,-0.0131,-0.0126,-0.0191,-0.0201,-0.0232,-0.0246,-0.0251,-0.0253,-0.0297,-0.0297,-0.0296,-0.0283,0,0,0,0,0,0,0.0157,0.015,0.0144,0.0093,0.0078,0.0028,-0.0006,-0.0024,-0.0074,-0.0085,-0.0157,-0.0167,-0.0193,-0.0227,-0.0234,-0.0249,-0.0255,-0.0298,-0.0297,-0.0296,-0.0284,-0.0283,-0.0281,0,0,0,0,0,0.016,0.0159,0.0144,0.0137,0.0074,0.0028,0.0015,-0.0046,-0.0074,-0.0103,-0.0137,-0.0167,-0.0228,-0.0229,-0.0237,-0.0254,-0.0298,-0.0297,-0.0296,-0.0285,-0.0283,-0.0281,0,0,0,0,0,0,0.0185,0.0147,0.0128,0.0113,0.0068,0.001,-0.003,-0.0054,-0.0107,-0.0125,-0.0161,-0.0172,-0.0203,-0.0222,-0.0222,-0.0262,-0.0269,-0.0269,-0.0257,-0.0255,-0.0254,-0.0247,-0.0258,0,0,0,0,0,0.0195,0.018,0.0135,0.012,0.0085,0.0026,-0.0003,-0.0037,-0.0081,-0.0111,-0.0144,-0.0178,-0.02,-0.0224,-0.0245,-0.0267,-0.0281,-0.0282,-0.028,-0.0279,-0.0277,-0.0297,-0.0297,-0.0293,-0.0293,-0.0293,0,0,0.0204,0.0179,0.0172,0.0125,0.0067,0.0042,-0.0002,-0.0056,-0.0062,-0.0108,-0.0142,-0.0173,-0.0201,-0.0227,-0.0243,-0.0252,-0.0287,-0.0278,-0.0277,-0.0276,-0.0296,-0.0297,-0.0297,-0.0293,-0.0293,-0.0293,0,0,0.021,0.0175,0.0157,0.0122,0.0059,0.0033,0.0017,-0.0046,-0.0078,-0.01,-0.0128,-0.0161,-0.0203,-0.0221,-0.0236,-0.0234,-0.0272,-0.0251,-0.025,-0.0269,-0.027,-0.027,-0.029,-0.0292,-0.0258,-0.0258,-0.0258,0,0.0227,0.0199,0.0144,0.0115,0.0096,0.0031,0.0014,-0.0019,-0.0066,-0.0078,-0.0111,-0.0164,-0.0196,-0.0212,-0.0222,-0.0232,-0.0253,-0.0258,-0.0268,-0.0269,-0.027,-0.0289,-0.0293,-0.0258,-0.0258,-0.0258,-0.0258,0,0.0227,0.0193,0.0166,0.0122,0.0098,0.0064,0.0027,0.0002,-0.0036,-0.0056,-0.0094,-0.0139,-0.0176,-0.0191,-0.0215,-0.0237,-0.0253,-0.0258,-0.0274,-0.027,-0.029,-0.0294,-0.0257,-0.0257,-0.0257,-0.0257,0,0,0.0285,0.0191,0.018,0.0154,0.01,0.0081,0.0067,0.0041,0.0034,-0.0024,-0.0036,-0.0093,-0.014,-0.0158,-0.0195,-0.022,-0.0254,-0.0254,-0.0256,-0.0277,-0.0308,-0.0245,-0.0244,-0.0273,-0.0273,-0.0274,-0.032,0,0.0294,0.0255,0.0217,0.0188,0.0153,0.0113,0.0115,0.0092,0.0056,0.0032,-0.003,-0.0066,-0.012,-0.0155,-0.0189,-0.0235,-0.0263,-0.0242,-0.0307,-0.0308,-0.0256,-0.0245,-0.0223,-0.0256,-0.0324,-0.0324,-0.0325,0,0.0309,0.0277,0.025,0.0207,0.0189,0.0178,0.0163,0.0157,0.0117,0.0084,0.0027,-0.0024,-0.0086,-0.0128,-0.0217,-0.0208,-0.0262,-0.0295,-0.0298,-0.0245,-0.0251,-0.0271,-0.026,-0.0331,-0.033,-0.033,-0.0329,0,0.037,0.0306,0.0289,0.0273,0.0221,0.0205,0.0185,0.0159,0.0163,0.01,0.0087,0.0005,-0.0044,-0.0121,-0.0218,-0.0228,-0.03,-0.0316,-0.0303,-0.03,-0.0294,-0.0288,-0.0365,-0.0365,-0.0365,-0.0365,-0.0364,0,0.0404,0.0382,0.03,0.0288,0.0281,0.0229,0.0229,0.0203,0.0179,0.0197,0.0096,0.0106,-0.0049,-0.011,-0.0199,-0.026,-0.0292,-0.0296,-0.0303,-0.0287,-0.028,-0.0354,-0.0352,-0.0366,-0.0366,-0.0366,-0.0365,0,0.0454,0.0403,0.0376,0.0314,0.0297,0.0284,0.0256,0.0273,0.0225,0.0245,0.0222,0.0162,0.0086,-0.0048,-0.0164,-0.0219,-0.0289,-0.0301,-0.0271,-0.0271,-0.0283,-0.028,-0.0288,-0.0286,-0.0284,-0.0283,-0.0282,0,0.0466,0.0456,0.0405,0.0397,0.0353,0.0326,0.0335,0.0296,0.0327,0.0311,0.0346,0.0262,0.0294,0.0141,-0.0028,-0.0164,-0.0231,-0.0226,-0.0222,-0.0266,-0.0273,-0.0273,-0.0272,-0.0225,-0.0223,-0.0222,-0.0221,0,0.0499,0.0483,0.047,0.0454,0.0441,0.0449,0.0446,0.0497,0.0482,0.0534,0.0613,0.0639,0.0462,0.0345,0.0113,0.0021,-0.0204,-0.0198,-0.0269,-0.0225,-0.0204,-0.0211,-0.0214,-0.021,-0.0211,-0.0212,-0.0213,-0.0213,0.0526,0.0531,0.0521,0.0516,0.0517,0.0566,0.0614,0.0662,0.0767,0.0819,0.0838,0.0846,0.0637,0.0377,0.0187,-0.0072,-0.0055,-0.0143,-0.0149,-0.0156,-0.0117,-0.0092,-0.0071,-0.0071,-0.0071,-0.0072,-0.0072,0,0.0551,0.0566,0.0582,0.0585,0.0629,0.06,0.0695,0.0756,0.0918,0.0949,0.1021,0.0871,0.0739,0.0448,0.0111,-0.0026,-0.0078,-0.0107,-0.0157,-0.0164,-0.0171,-0.0137,-0.0095,-0.0096,-0.0097,-0.0097,0,0,0.056,0.0597,0.0618,0.0688,0.0695,0.0755,0.0829,0.0922,0.0969,0.1063,0.1042,0.1001,0.0755,0.0494,0.0264,0.0067,-0.0017,0.0032,0.0075,0.0039,0.0033,-0.0158,-0.0107,0,0,0,0,0]}],[{"header":{"parameterUnit":"m.s-1","parameterCategory":2,"la1":30.2991,"la2":30.254,"lo1":-89.0895,"lo2":-89.0444,"dy":0.0017,"dx":0.0017,"nx":28,"ny":28,"refTime":"2024-05-03T09:00:00:Z","depth":"4","parameterNumber":2,"parameterNumberName":"U-component_of_CURRENTS"},"data":[0,0,0,0,0,0,0,0,0,0,0,0,0,0,0,0,0,0,0,0,0,0,0,0,0,0,0,0,0,0,0,0,0,0,0,0,0,0,0,0,0,0,0,0,0,0,0,0,0,0,0,0,0,0,0,0,0,0,0.0893,0.0893,0,0.0906,0.0906,0.0906,0.0915,0.0915,0.0915,0.0915,0.0998,0.1,0.1002,0,0,0,0,0,0,0,0,0,0,0,0,0,0.0904,0.0904,0.0893,0.0893,0.0893,0.0906,0.0906,0.0907,0.0915,0.0915,0.0915,0.0915,0.0998,0.1,0.1003,0,0,0,0,0,0,0,0,0,0,0,0,0,0.0906,0.0904,0.0893,0.0899,0.09,0.0906,0.0906,0.0907,0.0915,0.0915,0.0915,0.0915,0.0997,0.1,0.1003,0.1019,0,0,0.1013,0.1014,0,0,0,0,0,0,0,0,0.0906,0.0906,0.0898,0.0899,0.09,0.091,0.0941,0.0948,0.0915,0.0909,0.0915,0.0916,0.0975,0.098,0.0981,0.1023,0.1027,0.1013,0.1015,0.1016,0.1017,0,0,0,0,0,0,0,0.0906,0.0905,0.0898,0.0898,0.0899,0.0912,0.0912,0.0942,0.0942,0.0909,0.091,0.0912,0.0976,0.0977,0.0983,0.1028,0.1013,0.1016,0.1018,0.1019,0.1154,0.1155,0,0,0,0,0,0,0.0903,0.0905,0.0897,0.0898,0.0904,0.0912,0.0912,0.0906,0.094,0.0945,0.0912,0.0913,0.0972,0.0979,0.0986,0.1061,0.1016,0.1019,0.1021,0.1152,0.1154,0.1156,0,0,0,0,0,0,0.0903,0.0902,0.0897,0.0903,0.0903,0.0911,0.0905,0.0906,0.0928,0.0942,0.0948,0.0935,0.0972,0.0982,0.1037,0.1062,0.1021,0.1023,0.115,0.1153,0.1155,0.1177,0,0,0,0,0,0,0.0903,0.0902,0.091,0.0902,0.0903,0.0903,0.0905,0.0906,0.0928,0.0929,0.0963,0.0969,0.0973,0.1032,0.104,0.1066,0.1026,0.1148,0.1151,0.1154,0.1174,0.118,0.1185,0,0,0,0,0,0.0904,0.0896,0.091,0.091,0.0909,0.0904,0.0905,0.0911,0.0929,0.0934,0.0972,0.0969,0.1058,0.1036,0.1045,0.1072,0.1146,0.115,0.1154,0.1171,0.1179,0.1184,0,0,0,0,0,0,0.0909,0.0896,0.0911,0.0903,0.0912,0.0905,0.0919,0.0927,0.0959,0.0975,0.0993,0.1002,0.1063,0.1069,0.1045,0.1122,0.1101,0.1107,0.1112,0.1118,0.1124,0.1115,0.1029,0,0,0,0,0,0.0915,0.0899,0.0907,0.0901,0.0917,0.0929,0.0936,0.0939,0.0959,0.0973,0.1009,0.1047,0.1082,0.1101,0.1135,0.1176,0.1181,0.12,0.1205,0.121,0.1211,0.1224,0.123,0.1168,0.1168,0.1168,0,0,0.0923,0.0906,0.0906,0.0901,0.0918,0.0934,0.0934,0.0946,0.0964,0.098,0.1042,0.1076,0.1101,0.1148,0.1175,0.1157,0.1238,0.1215,0.1218,0.1216,0.1228,0.1234,0.1239,0.1171,0.1171,0.117,0,0,0.0916,0.0919,0.0917,0.0926,0.0941,0.0944,0.0955,0.0981,0.1004,0.1056,0.1078,0.1123,0.1187,0.1197,0.1211,0.1268,0.1273,0.1291,0.1303,0.1315,0.132,0.1324,0.1363,0.137,0.1284,0.1284,0.1284,0,0.0936,0.0922,0.0919,0.0926,0.0939,0.0955,0.0976,0.0996,0.1036,0.1069,0.1083,0.1189,0.1203,0.1249,0.1264,0.1277,0.1299,0.1271,0.132,0.1324,0.1327,0.1366,0.1373,0.1285,0.1285,0.1285,0.1285,0,0.0934,0.0938,0.0942,0.0953,0.0965,0.0979,0.1009,0.1045,0.1086,0.1113,0.1196,0.1226,0.1283,0.1295,0.1295,0.1336,0.1351,0.133,0.1296,0.1334,0.1374,0.1381,0.1288,0.1287,0.1287,0.1286,0,0,0.0946,0.0943,0.0951,0.0964,0.0983,0.0989,0.1032,0.1073,0.1113,0.1177,0.1234,0.1292,0.1325,0.1343,0.1357,0.136,0.1402,0.1357,0.1357,0.1384,0.1462,0.1341,0.1337,0.1392,0.1392,0.1393,0.1488,0,0.096,0.0964,0.0961,0.0987,0.1004,0.103,0.1062,0.1101,0.1151,0.1212,0.1261,0.1326,0.1338,0.1372,0.1382,0.1403,0.142,0.138,0.1432,0.1434,0.1309,0.134,0.1396,0.1493,0.1495,0.1496,0.1497,0,0.0967,0.0963,0.0988,0.1,0.1018,0.104,0.1096,0.1127,0.1202,0.1247,0.1321,0.1366,0.1421,0.1404,0.1472,0.1454,0.1464,0.1468,0.1471,0.135,0.1324,0.1443,0.151,0.1509,0.1508,0.1507,0.1506,0,0.0961,0.0982,0.0995,0.1006,0.1031,0.1064,0.109,0.1154,0.1191,0.128,0.1322,0.1404,0.1455,0.1483,0.1511,0.1502,0.1561,0.1546,0.1455,0.1449,0.1521,0.1515,0.1575,0.1575,0.1575,0.1575,0.1574,0,0.0953,0.0969,0.1003,0.1012,0.1043,0.1072,0.1122,0.1163,0.123,0.1269,0.1349,0.1386,0.1474,0.1518,0.1531,0.1519,0.1588,0.1463,0.1455,0.1534,0.1528,0.1527,0.1521,0.1578,0.1577,0.1577,0.1576,0,0.0932,0.0954,0.0973,0.1017,0.1037,0.1066,0.1129,0.1159,0.1233,0.1284,0.1316,0.1405,0.1454,0.1518,0.1565,0.1536,0.1533,0.1506,0.1614,0.161,0.142,0.1414,0.1431,0.1427,0.1424,0.1421,0.1419,0,0.0914,0.0922,0.0974,0.0987,0.1012,0.1061,0.1085,0.1158,0.118,0.1272,0.128,0.1365,0.1411,0.1403,0.1465,0.1496,0.1467,0.1484,0.1423,0.1409,0.1401,0.14,0.1398,0.1414,0.1413,0.1413,0.1412,0,0.0875,0.0907,0.0917,0.0948,0.098,0.1002,0.1044,0.1058,0.1129,0.1211,0.1213,0.124,0.1285,0.1325,0.1357,0.1368,0.1482,0.1451,0.1457,0.14,0.1389,0.1384,0.1386,0.1401,0.1402,0.1403,0.1404,0,0.0848,0.0845,0.0867,0.0885,0.0918,0.0917,0.0956,0.0968,0.1,0.1097,0.1095,0.1171,0.1257,0.1258,0.128,0.1286,0.1269,0.1241,0.1258,0.1271,0.117,0.1129,0.1054,0,0,0,0,0,0.081,0.079,0.0798,0.08,0.083,0.0853,0.0902,0.0942,0.1022,0.0988,0.1036,0.1059,0.1089,0.1133,0.1108,0.1219,0.1283,0.1188,0.1261,0.134,0.1353,0.1246,0,0,0,0,0,0,0.0777,0.0776,0.0766,0.0722,0.0719,0.0737,0.0772,0.083,0.0811,0.0903,0.0919,0.0995,0.1037,0.1086,0.1086,0.1102,0.1127,0.1242,0.124,0.1333,0.1344,0.1354,0.1249,0,0,0,0,0]},{"header":{"parameterUnit":"m.s-1","parameterCategory":2,"la1":30.2991,"la2":30.254,"lo1":-89.0895,"lo2":-89.0444,"dy":0.0017,"dx":0.0017,"nx":28,"ny":28,"refTime":"2024-05-03T09:00:00:Z","depth":"4","parameterNumber":3,"parameterNumberName":"V-component_of_CURRENTS"},"data":[0,0,0,0,0,0,0,0,0,0,0,0,0,0,0,0,0,0,0,0,0,0,0,0,0,0,0,0,0,0,0,0,0,0,0,0,0,0,0,0,0,0,0,0,0,0,0,0,0,0,0,0,0,0,0,0,0,0,0.0386,0.0387,0,0.0383,0.0383,0.0383,0.0398,0.0398,0.0399,0.04,0.0395,0.0395,0.0394,0,0,0,0,0,0,0,0,0,0,0,0,0,0.0344,0.0345,0.0386,0.0387,0.0387,0.0383,0.0383,0.0383,0.0398,0.0398,0.0399,0.04,0.0396,0.0395,0.0394,0,0,0,0,0,0,0,0,0,0,0,0,0,0.0352,0.0345,0.0386,0.0396,0.0396,0.0383,0.0383,0.0383,0.0398,0.0399,0.0399,0.04,0.0396,0.0395,0.0394,0.0367,0,0,0.039,0.039,0,0,0,0,0,0,0,0,0.0351,0.0353,0.0394,0.0395,0.0396,0.0394,0.0367,0.0378,0.0397,0.0395,0.04,0.0401,0.0396,0.0395,0.0388,0.0367,0.0367,0.039,0.039,0.0389,0.0389,0,0,0,0,0,0,0,0.0351,0.0353,0.0383,0.0394,0.0395,0.0379,0.0381,0.0368,0.0388,0.0395,0.0397,0.04,0.0396,0.0389,0.0389,0.0367,0.039,0.0389,0.0389,0.0388,0.0375,0.0375,0,0,0,0,0,0,0.0358,0.0353,0.0383,0.0383,0.0378,0.0379,0.0382,0.0392,0.0388,0.0389,0.0399,0.04,0.0391,0.039,0.0388,0.0402,0.0389,0.0388,0.0388,0.0375,0.0375,0.0375,0,0,0,0,0,0,0.0357,0.0361,0.0383,0.0369,0.0371,0.038,0.039,0.0391,0.0398,0.0391,0.0392,0.0407,0.0392,0.039,0.0389,0.0401,0.0388,0.0387,0.0374,0.0375,0.0375,0.0401,0,0,0,0,0,0,0.0356,0.0361,0.0374,0.037,0.0372,0.0387,0.0389,0.039,0.0399,0.0401,0.0398,0.0398,0.0392,0.0391,0.0388,0.0399,0.0386,0.0374,0.0374,0.0375,0.04,0.0402,0.0404,0,0,0,0,0,0.0355,0.0373,0.0375,0.0379,0.039,0.0388,0.0387,0.0394,0.0398,0.0403,0.0401,0.0399,0.0393,0.039,0.0387,0.0397,0.0374,0.0374,0.0375,0.0399,0.0402,0.0404,0,0,0,0,0,0,0.0362,0.0376,0.0379,0.0401,0.0399,0.0392,0.0401,0.0398,0.0399,0.0406,0.0396,0.0396,0.0401,0.0393,0.039,0.0396,0.0385,0.0385,0.0404,0.0407,0.0409,0.0422,0.0385,0,0,0,0,0,0.0369,0.0391,0.0389,0.0408,0.0409,0.0403,0.0406,0.0407,0.0405,0.0407,0.0406,0.0403,0.0397,0.0398,0.0392,0.039,0.0373,0.0396,0.0399,0.0401,0.0409,0.0384,0.0385,0.0377,0.0377,0.0377,0,0,0.0376,0.0389,0.04,0.0411,0.0411,0.0415,0.0407,0.0415,0.0423,0.0405,0.0421,0.041,0.0398,0.0401,0.0402,0.0398,0.0393,0.0401,0.0403,0.0411,0.0385,0.0386,0.0386,0.0378,0.0378,0.0378,0,0,0.0395,0.0412,0.043,0.0432,0.0439,0.0434,0.0438,0.0435,0.0442,0.0443,0.0437,0.0432,0.0425,0.042,0.0414,0.0423,0.0406,0.0426,0.0448,0.0424,0.0425,0.0425,0.0401,0.0399,0.0428,0.0428,0.0428,0,0.0403,0.0428,0.0432,0.0445,0.0454,0.0444,0.0454,0.0454,0.0454,0.046,0.0456,0.0446,0.0434,0.0434,0.044,0.0429,0.0413,0.0439,0.0427,0.0427,0.0427,0.0402,0.0399,0.0429,0.0429,0.0429,0.0429,0,0.0427,0.0448,0.0459,0.0477,0.0481,0.0492,0.049,0.0498,0.05,0.0497,0.0502,0.0481,0.0477,0.047,0.0457,0.0455,0.0444,0.0431,0.042,0.0429,0.0402,0.0399,0.0431,0.0431,0.043,0.043,0,0,0.0442,0.0471,0.0477,0.0492,0.0502,0.0508,0.0523,0.0531,0.0546,0.0538,0.055,0.0533,0.0524,0.0517,0.0499,0.0479,0.0457,0.046,0.0458,0.0437,0.0405,0.0372,0.0365,0.0442,0.0442,0.0442,0.0385,0,0.046,0.0494,0.0504,0.0533,0.0545,0.0549,0.0565,0.0572,0.0573,0.0582,0.056,0.0564,0.0542,0.054,0.0516,0.0474,0.0451,0.0474,0.0399,0.0397,0.0367,0.0361,0.0441,0.0382,0.0382,0.0381,0.0381,0,0.0478,0.0502,0.0534,0.0566,0.0573,0.059,0.0616,0.0631,0.0636,0.0637,0.0631,0.0613,0.0592,0.0566,0.0501,0.0517,0.0468,0.0429,0.0426,0.0387,0.0359,0.0372,0.0374,0.0375,0.0375,0.0376,0.0376,0,0.0483,0.0522,0.0553,0.0564,0.0595,0.0617,0.0637,0.0651,0.0673,0.0677,0.0686,0.0651,0.0641,0.0576,0.05,0.0501,0.0418,0.0403,0.0327,0.0324,0.0359,0.0359,0.0353,0.0353,0.0353,0.0353,0.0353,0,0.0495,0.052,0.0563,0.0581,0.0624,0.0641,0.0684,0.0696,0.0719,0.0743,0.0722,0.0723,0.0644,0.0588,0.051,0.0408,0.0422,0.033,0.0306,0.0371,0.0373,0.0356,0.0357,0.0351,0.0351,0.0352,0.0352,0,0.0489,0.0518,0.0557,0.0606,0.0627,0.0659,0.072,0.0748,0.077,0.0798,0.0804,0.0777,0.0705,0.0614,0.0503,0.0425,0.0326,0.0286,0.0364,0.0345,0.0246,0.0249,0.0194,0.0192,0.0191,0.0189,0.0188,0,0.0484,0.0506,0.0575,0.0604,0.0632,0.0686,0.0725,0.0768,0.0797,0.0827,0.0836,0.0791,0.0754,0.0573,0.0478,0.0319,0.0295,0.0237,0.0239,0.0247,0.0229,0.0235,0.024,0.0186,0.0186,0.0185,0.0185,0,0.0474,0.0507,0.0542,0.0607,0.0658,0.0715,0.0773,0.0796,0.0844,0.0866,0.0843,0.0765,0.0684,0.0556,0.0436,0.0323,0.0269,0.0222,0.0224,0.0226,0.0237,0.0222,0.0229,0.018,0.0181,0.0181,0.0182,0,0.0466,0.0491,0.0548,0.0603,0.0667,0.0727,0.076,0.0793,0.0826,0.0851,0.0838,0.0764,0.0725,0.0558,0.0448,0.0333,0.03,0.0248,0.0248,0.0252,0.0284,0.0308,0.0251,0,0,0,0,0,0.0454,0.0489,0.0538,0.0605,0.0669,0.0714,0.0785,0.0815,0.0858,0.0833,0.0834,0.0754,0.0597,0.0544,0.042,0.0422,0.0284,0.0272,0.0225,0.0154,0.0159,0.0183,0,0,0,0,0,0,0.0446,0.0495,0.0531,0.06,0.0643,0.0721,0.0768,0.0799,0.0785,0.0805,0.0725,0.07,0.0554,0.066,0.041,0.0381,0.0327,0.0211,0.0207,0.0151,0.0156,0.016,0.0186,0,0,0,0,0]}]]